Location: Newark
(25.0000°N, 73.5000°E)
Time: 11:37:09
(UTC+00:00)

Altair - Pass Details

Date: 09 March 2021
Orbit: 1501 x 1683 km, 47.2° (Epoch: 15 April)

Event Time Altitude Azimuth Distance (km) Brightness Sun altitude
Rises 20:49:39 0° 300° (WNW) 4,776 - -59.4°
Reaches altitude 10° 20:53:09 10° 290° (WNW) 3,816 - -58.8°
Maximum altitude 21:01:18 31° 233° (SW) 2,578 - -57.3°
Drops below altitude 10° 21:09:41 10° 175° (S) 3,912 - -55.7°
Sets 21:13:23 0° 166° (SSE) 4,911 - -55.0°
